Location: The Saddle
(36.8333°N, 80.3417°W)
Time: 08:34:27
(UTC-04:00)

A-11 Canister half - Pass Details

Date: 03 June 2024
Orbit: 1515 x 1685 km, 47.2° (Epoch: 17 June)

Event Time Altitude Azimuth Distance (km) Brightness Sun altitude
Rises 04:38:31 0° 296° (WNW) 4,763 11.4 -14.5°
Reaches altitude 10° 04:41:45 10° 302° (WNW) 3,756 10.9 -14.0°
Maximum altitude 04:51:00 54° 18° (NNE) 1,801 9.7 -12.6°
Drops below altitude 10° 05:00:00 10° 95° (E) 3,672 11.7 -11.2°
Sets 05:03:08 0° 100° (E) 4,651 12.2 -10.8°
